1484100000.61,61377,5.06,72632.8,-18.09,-42.13,-42.63,0,*63
1484100001.89,61378,5.06,72630.8,-18.09,-42.25,-42.69,0,*63
1484100003.13,61379,5.06,72630.0,-18.09,-42.13,-42.51,0,*6C
1484100004.41,61380,5.13,72634.5,-18.07,-42.19,-42.45,0,*6B
1484100005.66,61381,5.06,72628.8,-18.09,-42.25,-42.63,0,*6F
1484100006.93,61382,5.06,72628.5,-18.09,-42.25,-42.69,0,*66
1484100008.2,61383,5.06,72630.0,-18.09,-42.25,-42.69,0,*67
1484100009.45,61384,5.06,72632.3,-18.09,-42.13,-42.51,0,*6E
1484100010.72,61385,5.06,72630.5,-18.09,-42.05,-42.25,0,*6B
1484100011.94,61386,5.06,72632.5,-18.07,-41.99,-42.37,0,*63
1484100013.23,61387,5.06,72632.5,-18.09,-41.93,-42.45,0,*63
1484100014.52,61388,5.06,72630.0,-18.09,-41.93,-42.45,0,*6C
1484100015.75,61389,5.06,72630.5,-18.07,-41.87,-42.25,0,*60
1484100016.97,61390,5.06,72628.8,-18.07,-41.87,-42.37,0,*6B
1484100018.21,61391,5.06,72632.5,-18.07,-41.99,-42.45,0,*60
1484100019.46,61392,5.06,72628.3,-18.07,-41.99,-42.45,0,*63
1484100020.73,61393,5.06,72632.8,-18.07,-42.19,-42.57,0,*6A
1484100021.99,61394,5.06,72628.5,-18.07,-42.19,-42.63,0,*6A
1484100023.24,61395,5.06,72630.0,-18.07,-41.99,-42.45,0,*64
1484100024.51,61396,5.06,72630.5,-18.09,-42.25,-42.69,0,*63
1484100025.79,61397,5.06,72628.0,-18.07,-42.19,-42.69,0,*63
1484100027.04,61398,5.06,72628.8,-18.07,-42.19,-42.63,0,*66
1484100028.29,61399,5.13,72632.5,-18.07,-42.25,-42.57,0,*6F
1484100029.54,61400,5.06,72630.0,-18.07,-42.05,-42.63,0,*6D
1484100030.83,61401,5.06,72630.5,-18.09,-41.93,-42.45,0,*6A
1484100032.09,61402,5.06,72630.3,-18.07,-41.87,-42.19,0,*6B
1484100033.36,61403,5.06,72628.3,-18.07,-42.05,-42.57,0,*69
1484100034.58,61404,5.06,72630.3,-18.07,-41.99,-42.37,0,*6E
1484100035.83,61405,5.06,72628.5,-18.07,-42.19,-42.63,0,*65
1484100037.09,61406,5.06,72630.8,-18.07,-42.19,-42.63,0,*66
1484100038.36,61407,5.06,72634.8,-18.07,-42.05,-42.57,0,*6D
1484100039.61,61408,5.06,72630.3,-18.07,-41.81,-42.37,0,*6B
1484100040.85,61409,5.06,72626.8,-18.07,-41.81,-42.37,0,*6A
1484100042.1,61410,5.06,72634.0,-18.05,-41.87,-42.37,0,*66
1484100043.37,61411,5.06,72626.8,-18.05,-41.81,-42.37,0,*61
1484100044.64,61412,5.06,72630.3,-18.05,-41.99,-42.45,0,*6E
1484100045.91,61413,5.06,72628.0,-18.05,-41.99,-42.45,0,*6F
1484100047.17,61414,5.06,72630.0,-18.01,-41.99,-42.57,0,*6F
1484100048.46,61415,5.06,72632.8,-18.05,-42.05,-42.57,0,*6C
1484100049.72,61416,5.06,72634.5,-18.01,-42.13,-42.57,0,*6C
1484100051.02,61417,5.06,72630.3,-18.05,-42.19,-42.57,0,*63
1484100052.3,61418,5.06,72634.5,-18.05,-42.19,-42.63,0,*6B
1484100053.58,61419,5.06,72632.3,-18.05,-42.05,-42.63,0,*67
1484100054.88,61420,5.06,72632.3,-18.05,-42.19,-42.69,0,*6A
1484100056.15,61421,5.06,72632.0,-18.05,-42.25,-42.69,0,*64
1484100057.42,61422,5.06,72630.5,-18.05,-42.25,-42.83,0,*63
1484100058.7,61423,5.06,72632.5,-18.05,-42.25,-42.69,0,*66
1484100059.97,61424,5.06,72632.8,-18.05,-42.05,-42.63,0,*69
1484100061.26,61425,5.06,72632.3,-18.05,-42.19,-42.63,0,*65
1484100062.51,61426,5.06,72632.5,-18.07,-42.19,-42.63,0,*64
1484100063.77,61427,5.06,72632.5,-18.07,-42.05,-42.63,0,*68
1484100065.02,61428,5.06,72630.5,-18.07,-42.05,-42.63,0,*67
1484100066.29,61429,5.06,72634.5,-18.09,-42.25,-42.69,0,*60
1484100067.53,61430,5.06,72632.8,-18.07,-41.99,-42.57,0,*6F
1484100068.78,61431,5.06,72632.3,-18.07,-41.81,-42.37,0,*61
1484100070.01,61432,5.06,72634.3,-18.07,-41.99,-42.63,0,*6A
1484100071.27,61433,5.06,72634.0,-18.07,-42.05,-42.57,0,*6A
1484100072.53,61434,5.06,72630.8,-18.07,-42.05,-42.63,0,*6A
1484100073.78,61435,5.06,72632.0,-18.07,-42.05,-42.63,0,*6B
1484100075.0,61436,5.06,72632.5,-18.07,-41.99,-42.63,0,*6E
1484100076.27,61437,5.06,72634.5,-18.07,-42.05,-42.57,0,*6E
1484100077.52,61438,5.06,72632.0,-18.07,-41.87,-42.57,0,*68
1484100078.74,61439,5.06,72628.5,-18.07,-41.87,-42.37,0,*6F
1484100079.99,61440,5.06,72628.0,-18.07,-41.99,-42.57,0,*68
1484100081.25,61441,5.06,72634.0,-18.07,-42.19,-42.63,0,*65
1484100082.49,61442,5.06,72628.0,-18.07,-41.99,-42.57,0,*6A
1484100083.75,61443,5.06,72632.5,-18.07,-42.19,-42.63,0,*67
1484100085.03,61444,5.06,72634.5,-18.05,-42.19,-42.63,0,*62
1484100086.31,61445,5.06,72634.8,-18.05,-42.19,-42.63,0,*63
1484100087.61,61446,5.06,72630.3,-18.05,-42.19,-42.57,0,*67
1484100088.88,61447,5.06,72632.0,-18.07,-42.05,-42.57,0,*69
1484100090.13,61448,5.13,72636.0,-18.09,-42.25,-42.75,0,*6A
1484100091.4,61449,5.06,72634.5,-18.07,-42.05,-42.57,0,*67
1484100092.65,61450,5.06,72634.8,-18.07,-42.19,-42.63,0,*65
1484100093.9,61451,5.06,72632.5,-18.07,-41.87,-42.57,0,*67
1484100095.18,61452,5.06,72630.5,-18.07,-42.19,-42.69,0,*6D
1484100096.45,61453,5.06,72632.0,-18.07,-42.05,-42.57,0,*6C
1484100097.7,61454,5.06,72632.0,-18.07,-42.05,-42.63,0,*6C
1484100098.97,61455,5.06,72628.0,-18.07,-42.05,-42.57,0,*6A
1484100100.2,61456,5.06,72632.0,-18.07,-41.87,-42.63,0,*67
1484100101.43,61457,5.06,72630.0,-18.07,-41.99,-42.63,0,*69
1484100102.68,61458,5.06,72632.3,-18.07,-42.19,-42.63,0,*6D
1484100103.98,61459,5.06,72634.5,-18.05,-42.05,-42.57,0,*64
1484100105.23,61460,5.06,72634.8,-18.07,-42.19,-42.63,0,*66
1484100106.49,61461,5.06,72632.5,-18.07,-42.19,-42.63,0,*67
1484100107.77,61462,5.06,72632.0,-18.07,-42.19,-42.69,0,*6E
1484100109.05,61463,5.13,72632.8,-18.07,-42.19,-42.69,0,*6F
1484100110.3,61464,5.06,72632.3,-18.07,-41.99,-42.69,0,*63
1484100111.59,61465,5.06,72632.5,-18.09,-41.93,-42.69,0,*66
1484100112.84,61466,5.06,72632.5,-18.07,-41.87,-42.57,0,*63
1484100114.06,61467,5.06,72634.3,-18.07,-41.99,-42.63,0,*6A
1484100115.31,61468,5.06,72634.0,-18.07,-41.87,-42.57,0,*6D
1484100116.56,61469,5.06,72632.8,-18.07,-41.99,-42.57,0,*63
1484100117.81,61470,5.06,72634.3,-18.07,-41.81,-42.63,0,*65
1484100119.06,61471,5.06,72632.0,-18.07,-41.99,-42.57,0,*6A
1484100120.3,61472,5.06,72632.0,-18.07,-41.87,-42.45,0,*65
1484100121.58,61473,5.06,72630.3,-18.07,-41.67,-42.45,0,*6A
1484100122.83,61474,5.06,72634.5,-18.07,-41.67,-42.25,0,*6B
1484100124.08,61475,5.06,72636.0,-18.07,-41.81,-42.63,0,*60
1484100125.31,61476,5.06,72630.3,-18.07,-41.99,-42.63,0,*6A
1484100126.58,61477,5.06,72630.5,-18.07,-41.81,-42.57,0,*65
1484100127.81,61478,5.13,72632.0,-18.07,-41.99,-42.63,0,*64
1484100129.06,61479,5.06,72634.0,-18.07,-41.87,-42.57,0,*6D
1484100130.3,61480,5.06,72634.0,-18.07,-41.99,-42.57,0,*64
1484100131.59,61481,5.06,72632.3,-18.05,-41.81,-42.45,0,*6D
1484100132.85,61482,5.06,72628.8,-18.07,-41.81,-42.63,0,*68
1484100134.08,61483,5.06,72630.5,-18.07,-41.99,-42.63,0,*60
1484100135.32,61484,5.06,72632.0,-18.07,-41.87,-42.45,0,*6C
1484100136.55,61485,5.06,72634.0,-18.07,-41.99,-42.63,0,*66
1484100137.82,61486,5.06,72630.8,-18.09,-42.13,-42.69,0,*60
1484100139.05,61487,5.06,72634.0,-18.07,-41.99,-42.63,0,*64
1484100140.32,61488,5.06,72630.5,-18.09,-42.13,-42.69,0,*6E
1484100141.61,61489,5.06,72634.5,-18.09,-42.05,-42.69,0,*68
1484100142.89,61490,5.06,72634.5,-18.07,-41.81,-42.45,0,*6F
1484100144.13,61491,5.06,72632.0,-18.07,-41.87,-42.57,0,*6B
1484100145.36,61492,5.06,72628.8,-18.07,-41.87,-42.63,0,*6F
1484100146.59,61493,5.06,72634.8,-18.07,-41.87,-42.63,0,*6E
1484100147.82,61494,5.06,72630.5,-18.07,-41.87,-42.63,0,*69
1484100149.05,61495,5.06,72632.8,-18.07,-41.87,-42.63,0,*68
1484100150.29,61496,5.06,72630.8,-18.07,-41.87,-42.63,0,*6B
1484100151.56,61497,5.06,72632.8,-18.09,-41.93,-42.63,0,*61
1484100152.85,61498,5.13,72636.5,-18.09,-41.93,-42.69,0,*64
1484100154.08,61499,5.06,72634.3,-18.07,-41.87,-42.63,0,*64
1484100155.38,61500,5.06,72632.3,-18.09,-42.05,-42.69,0,*68
1484100156.63,61501,5.06,72632.8,-18.07,-41.81,-42.63,0,*62
1484100157.87,61502,5.06,72634.3,-18.09,-41.73,-42.51,0,*63
1484100159.15,61503,5.06,72634.8,-18.07,-41.67,-42.45,0,*6C
1484100160.42,61504,5.06,72634.3,-18.07,-41.81,-42.45,0,*63
1484100161.69,61505,5.06,72632.8,-18.07,-41.67,-42.57,0,*69
1484100162.92,61506,5.06,72632.5,-18.07,-41.73,-42.63,0,*68
1484100164.19,61507,5.06,72634.5,-18.09,-41.93,-42.51,0,*68
1484100165.43,61508,5.06,72632.8,-18.09,-41.73,-42.51,0,*69
1484100166.7,61509,5.06,72632.3,-18.07,-41.81,-42.45,0,*6E
1484100167.96,61510,5.06,72632.3,-18.07,-41.81,-42.63,0,*62
1484100169.21,61511,5.06,72632.0,-18.07,-41.67,-42.37,0,*6A
1484100170.48,61512,5.06,72632.8,-18.07,-41.67,-42.45,0,*6C
1484100171.72,61513,5.06,72634.0,-18.07,-41.49,-42.45,0,*61
1484100172.97,61514,5.06,72634.3,-18.07,-41.49,-42.45,0,*66
1484100174.27,61515,5.06,72632.5,-18.09,-41.55,-42.31,0,*67
1484100175.54,61516,5.06,72632.8,-18.07,-41.67,-42.57,0,*6B
1484100176.76,61517,5.06,72632.3,-18.07,-41.49,-42.37,0,*60
1484100178.03,61518,5.06,72632.5,-18.07,-41.81,-42.57,0,*6D
1484100179.28,61519,5.06,72634.3,-18.07,-41.67,-42.37,0,*62
1484100180.55,61520,5.06,72632.3,-18.09,-41.67,-42.51,0,*66
1484100181.8,61521,5.06,72634.3,-18.07,-41.67,-42.37,0,*69
1484100183.07,61522,5.06,72634.5,-18.07,-41.67,-42.45,0,*6F
1484100184.33,61523,5.13,72632.8,-18.07,-41.67,-42.63,0,*6A
1484100185.6,61524,5.13,72632.3,-18.07,-41.67,-42.57,0,*6A
1484100186.86,61525,5.06,72632.0,-18.07,-41.67,-42.63,0,*6C
1484100188.11,61526,5.06,72632.8,-18.07,-41.81,-42.63,0,*67
1484100189.39,61527,5.13,72636.8,-18.05,-41.81,-42.63,0,*64
1484100190.66,61528,5.06,72632.8,-18.07,-41.81,-42.45,0,*6D
1484100191.93,61529,5.06,72634.0,-18.09,-41.73,-42.69,0,*61
1484100193.2,61530,5.06,72632.5,-18.07,-41.67,-42.57,0,*6F
1484100194.45,61531,5.13,72636.8,-18.09,-41.87,-42.63,0,*69
1484100195.72,61532,5.06,72634.5,-18.07,-41.67,-42.57,0,*6D
1484100197.0,61533,5.06,72632.3,-18.09,-41.67,-42.63,0,*65
1484100198.27,61534,5.06,72628.0,-18.07,-41.81,-42.57,0,*63
1484100199.54,61535,5.06,72632.5,-18.09,-41.87,-42.69,0,*67
1484100200.79,61536,5.06,72632.8,-18.07,-41.49,-42.45,0,*66
1484100202.06,61537,5.06,72634.3,-18.09,-41.67,-42.63,0,*61
1484100203.28,61538,5.06,72632.0,-18.07,-41.49,-42.37,0,*6D
1484100204.5,61539,5.06,72632.5,-18.07,-41.29,-42.25,0,*69
1484100205.75,61540,5.06,72632.3,-18.07,-41.41,-42.45,0,*6F
1484100207.02,61541,5.06,72634.0,-18.09,-41.49,-42.31,0,*6B
1484100208.26,61542,5.06,72632.3,-18.07,-41.29,-42.19,0,*6A
1484100209.48,61543,5.06,72632.3,-18.07,-41.41,-42.37,0,*69
1484100210.71,61544,5.13,72634.8,-18.07,-41.41,-42.25,0,*6D
1484100211.95,61545,5.06,72634.8,-18.07,-41.61,-42.57,0,*6B
1484100213.18,61546,5.06,72634.0,-18.07,-41.61,-42.37,0,*6E
1484100214.47,61547,5.06,72630.8,-18.09,-41.55,-42.45,0,*63
1484100215.71,61548,5.06,72634.5,-18.07,-41.49,-42.45,0,*6F
1484100216.99,61549,5.06,72634.0,-18.09,-41.67,-42.63,0,*68
1484100218.25,61550,5.06,72634.3,-18.09,-41.49,-42.45,0,*68
1484100219.49,61551,5.06,72634.3,-18.07,-41.29,-42.19,0,*68
1484100220.71,61552,5.06,72634.5,-18.07,-41.49,-42.37,0,*61
1484100221.99,61553,5.13,72636.0,-18.07,-41.67,-42.57,0,*6A
1484100223.23,61554,5.06,72634.5,-18.07,-41.61,-42.57,0,*6B
1484100224.51,61555,5.06,72632.5,-18.09,-41.67,-42.63,0,*65
1484100225.73,61556,5.06,72634.8,-18.07,-41.49,-42.37,0,*65
1484100226.98,61557,5.06,72632.8,-18.07,-41.55,-42.63,0,*68
1484100228.28,61558,5.06,72632.0,-18.09,-41.67,-42.69,0,*62
1484100229.52,61559,5.06,72632.3,-18.07,-41.61,-42.57,0,*66
1484100230.77,61560,5.06,72636.3,-18.07,-41.49,-42.45,0,*65
1484100232.04,61561,5.06,72636.8,-18.09,-41.67,-42.51,0,*63
1484100233.32,61562,5.06,72634.3,-18.09,-41.67,-42.63,0,*61
1484100234.56,61563,5.06,72634.8,-18.07,-41.61,-42.45,0,*6C
1484100235.83,61564,5.06,72632.5,-18.09,-41.49,-42.45,0,*6F
1484100237.1,61565,5.06,72636.0,-18.09,-41.55,-42.51,0,*66
1484100238.34,61566,5.06,72632.0,-18.07,-41.49,-42.45,0,*63
1484100239.63,61567,5.06,72634.3,-18.09,-41.67,-42.45,0,*60
1484100240.91,61568,5.06,72634.3,-18.09,-41.55,-42.63,0,*6A
1484100242.18,61569,5.06,72636.3,-18.09,-41.55,-42.51,0,*6A
1484100243.45,61570,5.13,72638.8,-18.09,-41.67,-42.63,0,*62
1484100244.72,61571,5.06,72634.0,-18.09,-41.55,-42.51,0,*63
1484100245.99,61572,5.06,72632.5,-18.09,-41.49,-42.45,0,*68
1484100247.23,61573,5.06,72636.0,-18.07,-41.49,-42.45,0,*67
1484100248.5,61574,5.06,72634.8,-18.09,-41.67,-42.51,0,*67
1484100249.78,61575,5.06,72634.5,-18.09,-41.35,-42.51,0,*61
1484100251.05,61576,5.06,72634.3,-18.09,-41.55,-42.51,0,*64
1484100252.29,61577,5.13,72636.8,-18.09,-41.49,-42.51,0,*68
1484100253.58,61578,5.06,72634.5,-18.09,-41.35,-42.45,0,*69
1484100254.88,61579,5.06,72634.8,-18.09,-41.35,-42.45,0,*68
1484100256.14,61580,5.06,72636.0,-18.09,-41.29,-42.45,0,*63
1484100257.37,61581,5.06,72634.8,-18.09,-41.29,-42.25,0,*64
1484100258.65,61582,5.06,72638.3,-18.09,-41.35,-42.51,0,*69
1484100259.92,61583,5.06,72634.8,-18.09,-41.29,-42.31,0,*63
1484100261.22,61584,5.06,72634.5,-18.09,-41.35,-42.31,0,*69
1484100262.52,61585,5.06,72636.0,-18.09,-41.35,-42.31,0,*68
1484100263.82,61586,5.06,72632.3,-18.09,-41.23,-42.31,0,*6C
1484100265.09,61587,5.06,72634.8,-18.09,-41.29,-42.31,0,*67
1484100266.33,61588,5.06,72634.8,-18.09,-41.29,-42.25,0,*6D
1484100267.56,61589,5.06,72632.8,-18.09,-41.11,-42.13,0,*62
1484100268.81,61590,5.06,72632.0,-18.07,-41.17,-42.05,0,*65
1484100270.05,61591,5.06,72630.5,-18.09,-41.29,-42.25,0,*65
1484100271.35,61592,5.06,72634.5,-18.09,-41.23,-42.31,0,*69
1484100272.65,61593,5.06,72630.8,-18.09,-41.23,-42.31,0,*68
1484100273.93,61594,5.06,72630.3,-18.07,-41.23,-42.19,0,*6B
1484100275.17,61595,5.06,72634.5,-18.09,-41.29,-42.25,0,*61
1484100276.47,61596,5.06,72632.0,-18.09,-41.23,-42.31,0,*6D
1484100277.7,61597,5.06,72632.8,-18.09,-41.29,-42.25,0,*63
1484100278.98,61598,5.06,72628.5,-18.09,-41.23,-42.25,0,*66
1484100280.24,61599,5.06,72632.8,-18.09,-41.23,-42.13,0,*62
1484100281.51,61600,5.06,72630.8,-18.09,-41.23,-42.13,0,*61
1484100282.73,61601,5.13,72638.0,-18.07,-41.17,-42.25,0,*6C
1484100284.0,61602,5.06,72632.5,-18.09,-41.11,-42.05,0,*65
1484100285.26,61603,5.06,72634.0,-18.09,-41.11,-42.05,0,*64
1484100286.52,61604,5.06,72632.3,-18.09,-41.11,-42.05,0,*63
1484100287.77,61605,5.06,72630.8,-18.07,-40.97,-41.99,0,*65
1484100289.01,61606,5.06,72632.0,-18.07,-40.97,-41.99,0,*66
1484100290.28,61607,5.06,72634.3,-18.09,-41.11,-42.31,0,*67
1484100291.55,61608,5.06,72632.5,-18.09,-41.03,-42.05,0,*6C
1484100292.8,61609,5.06,72632.3,-18.07,-41.03,-42.05,0,*63
1484100294.05,61610,5.13,72638.0,-18.07,-41.03,-42.05,0,*6B
1484100295.27,61611,5.13,72636.0,-18.07,-41.17,-42.25,0,*6D
1484100296.54,61612,5.06,72634.3,-18.09,-41.23,-42.25,0,*67
1484100297.76,61613,5.06,72632.5,-18.07,-41.11,-42.13,0,*6C
1484100299.02,61614,5.06,72632.8,-18.09,-41.11,-42.05,0,*62
1484100300.3,61615,5.06,72632.8,-18.09,-41.11,-42.31,0,*64
1484100301.54,61616,5.06,72632.5,-18.07,-40.79,-41.87,0,*68
1484100302.78,61617,5.06,72628.8,-18.09,-41.03,-42.13,0,*65
1484100304.02,61618,5.06,72634.3,-18.09,-41.11,-42.25,0,*6C
1484100305.27,61619,5.06,72634.5,-18.07,-41.17,-42.19,0,*6A
1484100306.54,61620,5.06,72628.8,-18.09,-41.23,-42.25,0,*66
1484100307.76,61621,5.06,72632.5,-18.07,-41.17,-42.25,0,*6E
1484100308.99,61622,5.13,72636.8,-18.07,-41.17,-42.25,0,*6D
1484100310.28,61623,5.06,72634.3,-18.09,-41.23,-42.45,0,*63
1484100311.5,61624,5.06,72634.8,-18.07,-41.17,-42.25,0,*6B
1484100312.77,61625,5.06,72634.3,-18.09,-41.03,-42.05,0,*63
1484100314.04,61626,5.06,72632.5,-18.09,-41.03,-42.05,0,*60
1484100315.33,61627,5.06,72634.0,-18.09,-40.85,-41.81,0,*61
1484100316.57,61628,5.06,72634.5,-18.07,-40.79,-41.99,0,*6A
1484100317.84,61629,5.06,72632.0,-18.07,-40.97,-42.05,0,*6D
1484100319.11,61630,5.06,72632.8,-18.07,-40.97,-42.05,0,*65
1484100320.35,61631,5.06,72634.8,-18.09,-41.11,-42.25,0,*67
1484100321.59,61632,5.06,72634.0,-18.09,-41.11,-42.13,0,*61
1484100322.82,61633,5.06,72634.5,-18.09,-41.11,-42.13,0,*60
1484100324.07,61634,5.06,72634.8,-18.07,-40.85,-41.99,0,*64
1484100325.32,61635,5.06,72634.8,-18.07,-41.03,-42.05,0,*6C
1484100326.59,61636,5.06,72634.3,-18.07,-40.97,-42.19,0,*6E
1484100327.84,61637,5.06,72632.5,-18.07,-41.03,-42.05,0,*6E
1484100329.08,61638,5.06,72634.5,-18.09,-41.03,-42.13,0,*68
1484100330.35,61639,5.06,72634.8,-18.07,-40.97,-42.05,0,*6C
1484100331.6,61640,5.06,72636.8,-18.07,-40.85,-41.99,0,*67
1484100332.85,61641,5.06,72630.8,-18.09,-40.91,-42.25,0,*69
1484100334.11,61642,5.06,72634.8,-18.09,-41.11,-42.05,0,*61
1484100335.36,61643,5.06,72634.3,-18.09,-41.03,-42.25,0,*61
1484100336.6,61644,5.06,72634.0,-18.07,-40.97,-42.25,0,*64
1484100337.84,61645,5.06,72632.3,-18.09,-40.91,-42.13,0,*68
1484100339.12,61646,5.06,72634.8,-18.09,-41.03,-42.05,0,*66
1484100340.4,61647,5.06,72632.0,-18.09,-40.85,-42.05,0,*68
1484100341.67,61648,5.06,72634.5,-18.09,-40.91,-42.05,0,*62
1484100342.94,61649,5.06,72634.5,-18.07,-40.85,-42.05,0,*68
1484100344.21,61650,5.06,72632.0,-18.09,-40.91,-42.05,0,*6B
1484100345.48,61651,5.06,72632.5,-18.07,-40.85,-42.05,0,*61
1484100346.75,61652,5.06,72632.3,-18.09,-40.91,-42.05,0,*69
1484100348.0,61653,5.06,72634.8,-18.09,-40.91,-42.25,0,*6A
1484100349.22,61654,5.06,72634.0,-18.07,-40.91,-42.13,0,*66
1484100350.46,61655,5.06,72632.3,-18.09,-41.03,-42.13,0,*63
1484100351.72,61656,5.06,72628.5,-18.09,-40.73,-41.93,0,*6D
1484100352.98,61657,5.06,72632.8,-18.09,-40.73,-41.93,0,*6C
1484100354.27,61658,5.06,72634.5,-18.09,-40.85,-42.05,0,*66
1484100355.56,61659,5.06,72634.0,-18.09,-40.85,-42.05,0,*67
1484100356.81,61660,5.06,72632.8,-18.07,-40.85,-41.99,0,*65
1484100358.09,61661,5.06,72632.8,-18.09,-40.85,-42.05,0,*6C
1484100359.38,61662,5.06,72634.8,-18.09,-40.85,-41.93,0,*63
1484100360.67,61663,5.06,72630.8,-18.09,-40.85,-41.93,0,*62
1484100361.9,61664,5.06,72632.5,-18.07,-40.65,-41.81,0,*66
1484100363.15,61665,5.06,72632.5,-18.07,-40.59,-41.87,0,*6E
1484100364.39,61666,5.06,72634.8,-18.09,-40.65,-41.87,0,*6C
1484100365.66,61667,5.06,72634.8,-18.09,-40.53,-41.67,0,*66
1484100366.9,61668,5.06,72632.3,-18.09,-40.53,-41.87,0,*67
1484100368.16,61669,5.06,72632.8,-18.09,-40.73,-41.93,0,*61
1484100369.44,61670,5.06,72634.3,-18.09,-40.85,-41.93,0,*60
1484100370.68,61671,5.06,72634.8,-18.09,-40.65,-41.87,0,*6A
1484100371.92,61672,5.06,72634.3,-18.09,-40.65,-41.73,0,*62
1484100373.17,61673,5.06,72636.8,-18.09,-40.65,-41.93,0,*6D
1484100374.41,61674,5.06,72632.5,-18.09,-40.73,-41.87,0,*68
1484100375.63,61675,5.06,72634.5,-18.07,-40.65,-41.87,0,*60
1484100376.85,61676,5.06,72630.8,-18.07,-40.65,-41.87,0,*63
1484100378.11,61677,5.06,72634.8,-18.09,-40.73,-42.05,0,*62
1484100379.37,61678,5.06,72638.0,-18.09,-40.73,-41.93,0,*61
1484100380.66,61679,5.06,72632.0,-18.09,-40.85,-42.05,0,*65
1484100381.9,61680,5.06,72632.8,-18.07,-40.79,-41.99,0,*68
1484100383.14,61681,5.06,72634.0,-18.09,-40.65,-41.87,0,*65
1484100384.43,61682,5.06,72634.3,-18.09,-40.85,-41.93,0,*6D
1484100385.68,61683,5.06,72634.3,-18.09,-40.65,-41.93,0,*62
1484100386.92,61684,5.06,72634.3,-18.09,-40.53,-41.87,0,*65
1484100388.16,61685,5.06,72634.3,-18.09,-40.65,-41.73,0,*6A
1484100389.4,61686,5.06,72634.8,-18.09,-40.47,-41.73,0,*69
1484100390.67,61687,5.06,72632.5,-18.09,-40.47,-41.67,0,*6D
1484100391.91,61688,5.06,72632.5,-18.09,-40.65,-41.87,0,*6C
1484100393.17,61689,5.06,72632.8,-18.09,-40.73,-41.93,0,*6F
1484100394.43,61690,5.06,72636.8,-18.09,-40.73,-41.93,0,*67
1484100395.68,61691,5.06,72632.0,-18.09,-40.73,-41.93,0,*66
1484100396.92,61692,5.06,72634.5,-18.09,-40.65,-41.73,0,*6C
1484100398.16,61693,5.06,72636.5,-18.09,-40.53,-41.73,0,*68
1484100399.4,61694,5.06,72632.5,-18.09,-40.53,-41.87,0,*64
1484100400.63,61695,5.06,72632.0,-18.09,-40.53,-41.73,0,*6E
1484100401.89,61696,5.06,72634.5,-18.09,-40.53,-41.93,0,*63
1484100403.13,61697,5.06,72634.3,-18.09,-40.65,-41.87,0,*62
1484100404.36,61698,5.06,72632.5,-18.09,-40.53,-41.87,0,*68
1484100405.58,61699,5.06,72634.3,-18.07,-40.47,-41.61,0,*6A
1484100406.85,61700,5.06,72632.8,-18.09,-40.53,-41.67,0,*66
1484100408.09,61701,5.06,72632.0,-18.09,-40.53,-41.73,0,*62
1484100409.32,61702,5.06,72634.3,-18.09,-40.65,-41.73,0,*64
1484100410.59,61703,5.06,72628.8,-18.09,-40.53,-41.67,0,*65
1484100411.86,61704,5.06,72634.5,-18.09,-40.53,-41.67,0,*62
1484100413.1,61705,5.06,72634.5,-18.09,-40.65,-41.87,0,*68
1484100414.36,61706,5.06,72636.3,-18.09,-40.53,-41.67,0,*60
1484100415.6,61707,5.06,72634.3,-18.09,-40.53,-41.73,0,*64
1484100416.84,61708,5.06,72632.0,-18.09,-40.53,-41.73,0,*6B
1484100418.11,61709,5.06,72634.5,-18.09,-40.35,-41.67,0,*6F
1484100419.35,61710,5.06,72636.3,-18.09,-40.47,-41.73,0,*67
1484100420.6,61711,5.06,72636.5,-18.09,-40.47,-41.87,0,*6D
1484100421.86,61712,5.06,72634.5,-18.09,-40.53,-41.67,0,*65
1484100423.13,61713,5.06,72630.5,-18.09,-40.47,-41.55,0,*60
1484100424.4,61714,5.06,72634.0,-18.09,-40.53,-41.67,0,*63
1484100425.67,61715,5.06,72632.0,-18.09,-40.47,-41.67,0,*67
1484100426.94,61716,5.06,72634.0,-18.09,-40.35,-41.55,0,*60
1484100428.23,61717,5.06,72634.5,-18.09,-40.29,-41.55,0,*6C
1484100429.5,61718,5.06,72634.8,-18.09,-40.47,-41.55,0,*6B
1484100430.77,61719,5.06,72632.8,-18.09,-40.47,-41.55,0,*6A
1484100432.05,61720,5.06,72634.0,-18.09,-40.47,-41.67,0,*61
1484100433.31,61721,5.06,72634.5,-18.09,-40.53,-41.67,0,*65
1484100434.58,61722,5.06,72634.5,-18.09,-40.53,-41.67,0,*66
1484100435.85,61723,5.06,72632.3,-18.09,-40.35,-41.55,0,*66
1484100437.12,61724,5.06,72636.0,-18.09,-40.35,-41.55,0,*61
1484100438.39,61725,5.06,72638.0,-18.09,-40.53,-41.67,0,*61
1484100439.64,61726,5.06,72632.0,-18.11,-40.47,-41.67,0,*6E
1484100440.87,61727,5.06,72634.3,-18.09,-40.35,-41.49,0,*6F
1484100442.14,61728,5.06,72638.5,-18.09,-40.47,-41.55,0,*68
1484100443.39,61729,5.06,72634.3,-18.11,-40.47,-41.55,0,*60
1484100444.63,61730,5.06,72632.5,-18.09,-40.35,-41.49,0,*69
1484100445.88,61731,5.06,72634.3,-18.09,-40.15,-41.49,0,*6A
1484100447.15,61732,5.06,72634.3,-18.09,-40.47,-41.55,0,*63
1484100448.42,61733,5.06,72634.0,-18.09,-40.35,-41.55,0,*67
1484100449.71,61734,5.06,72636.3,-18.09,-40.29,-41.35,0,*6B
1484100450.99,61735,5.06,72634.8,-18.09,-40.15,-41.35,0,*65
1484100452.27,61736,5.06,72634.8,-18.09,-40.09,-41.29,0,*66
1484100453.57,61737,5.06,72634.0,-18.09,-40.09,-41.35,0,*6A
1484100454.83,61738,5.06,72634.8,-18.09,-40.29,-41.49,0,*6C
1484100456.11,61739,5.06,72632.8,-18.09,-40.15,-41.35,0,*69
1484100457.4,61740,5.06,72630.8,-18.09,-40.29,-41.35,0,*68
1484100458.68,61741,5.06,72636.0,-18.09,-40.09,-41.29,0,*66
1484100459.95,61742,5.06,72634.0,-18.09,-40.35,-41.55,0,*61
1484100461.21,61743,5.06,72634.0,-18.09,-40.29,-41.49,0,*60
1484100462.45,61744,5.06,72632.3,-18.09,-40.35,-41.49,0,*6A
1484100463.72,61745,5.06,72632.8,-18.09,-40.35,-41.55,0,*66
1484100464.98,61746,5.06,72634.8,-18.09,-40.47,-41.55,0,*60
1484100466.25,61747,5.06,72634.3,-18.09,-40.35,-41.55,0,*64
1484100467.55,61748,5.06,72634.0,-18.09,-40.29,-41.35,0,*60
1484100468.83,61749,5.06,72636.0,-18.09,-40.09,-41.03,0,*66
1484100470.11,61750,5.06,72634.3,-18.09,-40.15,-41.35,0,*66
1484100471.41,61751,5.06,72632.0,-18.09,-40.09,-41.23,0,*6D
1484100472.69,61752,5.06,72634.8,-18.09,-40.15,-41.23,0,*63
1484100473.97,61753,5.06,72632.3,-18.09,-40.09,-41.11,0,*6E
1484100475.25,61754,5.06,72634.3,-18.09,-40.15,-41.35,0,*62
1484100476.54,61755,5.06,72636.0,-18.09,-40.29,-41.35,0,*6C
1484100477.8,61756,5.06,72632.5,-18.09,-40.29,-41.29,0,*62
1484100479.09,61757,5.06,72636.5,-18.09,-40.15,-41.23,0,*66
1484100480.37,61758,5.06,72632.5,-18.09,-40.15,-41.35,0,*6E
1484100481.66,61759,5.06,72632.0,-18.09,-40.29,-41.35,0,*60
1484100482.91,61760,5.06,72636.5,-18.09,-40.15,-41.29,0,*68
1484100484.19,61761,5.06,72636.8,-18.09,-40.15,-41.23,0,*63
1484100485.49,61762,5.06,72634.5,-18.09,-40.09,-41.23,0,*6D
1484100486.8,61763,5.06,72638.3,-18.09,-40.09,-41.23,0,*6C
1484100488.05,61764,5.06,72638.8,-18.09,-39.91,-41.03,0,*66
1484100489.3,61765,5.06,72638.0,-18.09,-40.03,-41.03,0,*62
1484100490.53,61766,5.06,72638.0,-18.07,-40.03,-41.03,0,*6F
1484100491.77,61767,5.06,72636.8,-18.07,-40.21,-41.29,0,*66
1484100493.05,61768,5.06,72632.8,-18.09,-40.09,-41.03,0,*65
1484100494.31,61769,5.06,72634.8,-18.09,-40.15,-41.29,0,*61
1484100495.61,61770,5.06,72636.8,-18.09,-40.09,-41.23,0,*6E
1484100496.89,61771,5.06,72632.8,-18.09,-39.91,-41.23,0,*60
1484100498.16,61772,5.06,72634.5,-18.09,-40.09,-41.11,0,*6D
1484100499.42,61773,5.06,72634.5,-18.09,-40.15,-41.29,0,*6A
1484100500.69,61774,5.06,72634.5,-18.09,-40.03,-41.23,0,*60
1484100501.97,61775,5.06,72632.3,-18.07,-40.09,-41.23,0,*65
1484100503.22,61776,5.06,72634.8,-18.09,-40.15,-41.29,0,*6F